Home   Weather   Cleveland   Past weeks

Flag for USA Past Weather in Cleveland, Tennessee, USA — Yesterday and Last 2 Weeks

Now
74 °F

Scattered clouds.


Feels Like: 76 °F
Forecast: 69 / 88 °F
Wind: 6 mph from Southwest

Location: Lovell Field

Current Time: Sep 26, 2016 at 10:00:38 AM

Latest Report: Sep 26, 2016 at 8:53 AM


Visibility: 10 mi

Pressure: 30.04 "Hg

Humidity: 69%

Dew Point: 63 °F

Location of ClevelandLocation

Past Weather in Cleveland — Graph

°F

Cleveland Temperature Yesterday

Maximum temperature yesterday: 96 °F (at 4:53 PM)
Minimum temperature yesterday: 67 °F (at 7:53 AM)
Average temperature yesterday: 81 °F

High & Low Weather Summary for the Past Weeks

 TemperatureHumidityPressure
High97 °F (Sep 15, 4:53 PM)100% (Sep 18, 2:53 PM)30.17 "Hg (Sep 18, 2:53 PM)
Low64 °F (Sep 12, 6:53 AM)25% (Sep 15, 4:53 PM)29.95 "Hg (Sep 18, 4:53 PM)
Average79 °F61%30.05 "Hg
* Reported Sep 11 8:53 AM — Sep 26 8:53 AM, Cleveland, Weather by CustomWeather, © 2016

Note: Actual official high and low records may vary slightly from our data, if they occured in-between our weather recording intervals... More about our weather records

Advertising

Cleveland Weather History for the Previous 24 Hours

Scroll right to see more
 ConditionsComfort  
Time TempWeatherWind HumidityBarometerVisibility
8:53 AM
Mon, Sep 26
74 °FScattered clouds.6 mph69%30.04 "Hg10 mi
7:53 AM70 °FScattered clouds.No wind79%30.04 "Hg10 mi
6:53 AM71 °FPassing clouds.3 mph76%30.01 "Hg10 mi
5:53 AM72 °FPassing clouds.No wind73%30.01 "Hg10 mi
4:53 AM72 °FClear.No wind73%30.01 "Hg10 mi
3:53 AM74 °FClear.No wind69%30.01 "Hg10 mi
2:53 AM75 °FPassing clouds.No wind66%30.02 "Hg10 mi
1:53 AM76 °FPassing clouds.No wind69%30.02 "Hg10 mi
12:53 AM78 °FPassing clouds.No wind62%30.02 "Hg10 mi
11:53 PM
Sun, Sep 25
76 °FPassing clouds.No wind69%30.01 "Hg10 mi
10:53 PM82 °FPassing clouds.No wind49%30.01 "Hg10 mi
9:53 PM86 °FPassing clouds.5 mph45%30.01 "Hg10 mi
8:53 PM86 °FPassing clouds.5 mph45%29.99 "Hg10 mi
7:53 PM90 °FPassing clouds.3 mph34%29.97 "Hg10 mi
6:53 PM93 °FScattered clouds.6 mph32%29.96 "Hg10 mi
5:53 PM95 °FScattered clouds.5 mph29%29.96 "Hg10 mi
4:53 PM96 °FScattered clouds.6 mph27%29.96 "Hg10 mi
3:53 PM95 °FScattered clouds.5 mph28%29.98 "Hg10 mi
2:53 PM94 °FScattered clouds.5 mph29%30.01 "Hg10 mi
1:53 PM92 °FPassing clouds.7 mph35%30.03 "Hg10 mi
12:53 PM91 °FPassing clouds.3 mph42%30.06 "Hg10 mi
11:53 AM86 °FPassing clouds.No wind49%30.07 "Hg10 mi
10:53 AM81 °FSunny.5 mph58%30.09 "Hg10 mi
Weather by CustomWeather, © 2016

See weather overviewHow to use our weather pages